Regional Weather Roundup
Issued by NWS

Home | Current Version | Previous Version | Text Only | Print | Product List | Glossary Off
Versions: 1 2 3 4 5 6 7 8 9 10 11 12 13 14 15 16 17 18 19 20 21 22 23 24 25 26 27

000
ASUS45 KBOU 230107
RWRCO

WEATHER ROUNDUP FOR COLORADO
NATIONAL WEATHER SERVICE DENVER/BOULDER CO
600 PM MST WED FEB 22 2017

NOTE: "FAIR" INDICATES FEW OR NO CLOUDS BELOW 12000 FEET WITH NO
SIGNIFICANT WEATHER AND/OR OBSTRUCTIONS TO VISIBILITY.

COZ001>005-013-030-031-230200-
...NORTHWEST COLORADO...

CITY           SKY/WX    TMP DP  RH WIND       PRES   REMARKS
CRAIG          CLOUDY    35  26  69 N6        29.76F WCI  30
HAYDEN         CLOUDY    34  27  75 W7        29.76F WCI  28
MEEKER         CLOUDY    37  30  75 NE16      29.70F
MOUNT WERNER   NOT AVBL
STEAMBOAT SPGS FAIR      32  28  86 NW3       29.75F
WALDEN         NOT AVBL
$$

COZ006>008-011-230200-
...WEST CENTRAL VALLEYS...

CITY           SKY/WX    TMP DP  RH WIND       PRES   REMARKS
GRAND JUNCTION MOCLDY    57  28  33 N9        29.62F
MONTROSE       FAIR      55  20  25 SW14      29.73F
EAGLE          MOCLDY    46  28  49 NE9       29.71F
RIFLE          MOCLDY    53  27  36 W10       29.65F
DELTA          FAIR      59  18  20 SW12G17   29.68F
NUCLA          FAIR      54  16  22 S16       29.75F
$$

COZ017>023-064>068-230200-
...SOUTHWEST COLORADO...

CITY           SKY/WX    TMP DP  RH WIND       PRES   REMARKS
DURANGO        FAIR      50  25  37 SW9       29.84F
CORTEZ         FAIR      55  28  35 S22G28    29.78F
PAGOSA SPRINGS CLOUDY    43  28  54 CALM      29.88F
TELLURIDE      FAIR      42  16  34 SW17G23   29.85F
WOLF CREEK PAS CLOUDY    25  25 100 S22G30    29.98F WCI  10
$$

COZ009-010-012-014-032>034-037-058>063-230200-
...CENTRAL COLORADO...

CITY           SKY/WX    TMP DP  RH WIND       PRES   REMARKS
ASPEN          MOCLDY    42  24  49 S6        29.75F
BUENA VISTA    FAIR      45  10  24 S7        29.79F
COPPER MTN     FAIR      30  12  47 S13G22    29.88F WCI  20
BERTHOUD PASS  MOCLDY    23  12  63 S15       29.89F WCI  10
COTTONWOOD PAS FAIR      41   3  20 S8G24     29.84F
GUNNISON       FAIR      40  23  50 CALM      29.79F
KREMMLING      DRIZZLE   43  32  65 W15       29.77S
LEADVILLE      MOCLDY    33  10  38 S15G21    29.81F WCI  23
MONARCH PASS   CLOUDY    27  12  54 SW20      30.01F WCI  13
SALIDA         FAIR      48  15  27 SW3       29.87F
SUNLIGHT       NOT AVBL
WILKERSON PASS FAIR      30   5  34 SW7G20    29.91S WCI  23
$$

COZ069>075-230200-
...SAN LUIS VALLEY/SANGRE DE CRISTO MOUNTAINS...

CITY           SKY/WX    TMP DP  RH WIND       PRES   REMARKS
ALAMOSA        FAIR      42  30  62 SW14G23   29.87F
LA VETA PASS   MOCLDY    34  21  60 N29G44    29.91F WCI  20
SAGUACHE       FAIR      45  19  36 W15G21    29.84R
$$

COZ035-036-038>040-230200-
...NORTHERN COLORADO FRONT RANGE...

CITY           SKY/WX    TMP DP  RH WIND       PRES   REMARKS
DENVER INTL AP MOCLDY    47  18  31 NE14      29.74R
DMNS CITY PARK   N/A     50  17  27 N8G16     29.76R
AURORA         MOCLDY    47  19  33 N8        29.74R
FRONT RANGE AP MOCLDY    48  19  32 NE14      29.75R
ERIE MUNI ARPT FAIR      49  19  31 NE14      29.76R
BOULDER MUN AP CLOUDY    48  21  34 NE9       29.77R
CENTENNIAL     FAIR      50  19  29 NE7       29.74R
BROOMFIELD     MOCLDY    50  19  29 NE13      29.77R
FORT COLLINS   FAIR      47  23  38 NE13      29.78R
LONGMONT       CLOUDY    51  24  33 NE10      29.79R
$$

COZ041-046-047-076>085-087-088-230200-
...PIKES PEAK/PALMER DIVIDE AND SOUTHERN FOOTHILLS...

CITY           SKY/WX    TMP DP  RH WIND       PRES   REMARKS
COLO. SPRINGS  FAIR      56  10  16 SW22G28   29.70F
A. F. ACADEMY  FAIR      53   3  13 W8        29.71S
SCHRIEVER AFB  FAIR      53  10  17 SW16G24   29.71F
ELLICOTT       FAIR     N/A N/A N/A SW14      29.71S
FALCON         FAIR      50   9  18 SW8       29.74F
FORT CARSON    FAIR      57  13  17 SW15      29.69S
LIMON          FAIR      49  20  31 E9        29.72S
MONUMENT HILL  FAIR      45   5  19 W8        29.75S
TRINIDAD       FAIR      57   3  11 SW16G31   29.79F
$$

COZ042>045-048>051-090-091-230200-
...NORTHEAST COLORADO...

CITY           SKY/WX    TMP DP  RH WIND       PRES   REMARKS
GREELEY ARPT   FAIR      47  22  37 NE12      29.78S
AKRON          FAIR      42  17  36 NE9       29.75F
BURLINGTON     FAIR      47  21  35 E10       29.74S
WRAY           NOT AVBL
STERLING       FAIR      48  19  32 NE9       29.76R
HOLYOKE        FAIR      48  18  29 N8        29.77R
FORT MORGAN    FAIR      44  15  30 N10       29.76F
$$

COZ086-089-092>099-230200-
...SOUTHEAST COLORADO...

CITY           SKY/WX    TMP DP  RH WIND       PRES   REMARKS
PUEBLO         FAIR      61  21  21 SW20G29   29.68S
LA JUNTA       FAIR      64  16  15 SW24G35   29.67F
LAMAR          FAIR      64  22  20 S12       29.67S
SPRINGFIELD      N/A     59  23  25 S6        29.74R
$$




USA.gov is the U.S. government's official web portal to all federal, state and local government web resources and services.